DateTime,F1_A11,F1_S11,BsB_S11,BsG_S11,BsR_S11,BbsB_S11,BbsG_S11,BbsR_S11,BaB_A11,BaG_A11,BaR_A11,T_S11,U_S11,P_S11,T1_A11
2016-12-29T00:00:00Z,0000388,21000608,,,,,,,,,,24.6,00.0,0626.5,34.4
2016-12-29T00:01:00Z,0000388,21000608,,,,,,,,,,24.6,00.0,0626.5,34.4
2016-12-29T00:02:00Z,0000388,21000608,,,,,,,,,,24.6,00.0,0626.5,34.4
2016-12-29T00:03:00Z,0000388,61000608,,,,,,,,,,24.6,00.0,0626.5,34.4
2016-12-29T00:04:00Z,0000388,41000608,0000.73,0000.86,0000.32,0000.29,-000.06,-000.13,0000.07,-000.01,-000.07,24.9,00.0,0627.5,34.4
2016-12-29T00:05:00Z,0000388,01000608,0001.49,0000.81,-000.03,0000.28,-000.15,-000.47,-000.07,0000.03,-000.21,25.0,00.0,0627.6,34.5
2016-12-29T00:06:00Z,0000388,01000608,-000.84,0000.56,0000.36,-000.27,0000.00,-000.14,0000.06,-000.17,0000.24,25.0,00.0,0627.7,34.5
2016-12-29T00:07:00Z,0000388,01000608,0000.15,0000.91,0000.36,0000.19,-000.16,0000.17,0000.04,0000.30,0000.05,25.0,00.0,0627.7,34.4
2016-12-29T00:08:00Z,0000388,01000608,0000.23,0000.35,0000.43,0000.42,0000.18,-000.11,0000.09,-000.14,0000.06,24.9,00.0,0627.7,34.4
2016-12-29T00:09:00Z,0000388,01000608,0000.87,0000.42,0000.88,0000.04,0000.28,0000.30,-000.13,-000.18,-000.15,24.9,00.0,0627.8,34.4
2016-12-29T00:10:00Z,0000388,01000608,0000.85,0000.52,0000.53,0000.26,0000.08,-000.07,0000.14,0000.09,0000.17,24.8,00.0,0627.8,34.4
2016-12-29T00:11:00Z,0000388,01000608,0001.24,0000.30,0000.23,0000.22,-000.32,0000.08,-000.17,0000.01,-000.16,24.8,00.0,0627.8,34.5
2016-12-29T00:12:00Z,0000388,01000608,0001.21,0000.41,-000.01,-000.30,-000.19,-000.69,0000.24,-000.04,0000.12,24.8,00.0,0627.8,34.4
2016-12-29T00:13:00Z,0000388,01000608,-000.07,0000.16,0000.99,-000.41,-000.03,0000.37,-000.05,0000.31,0000.15,24.8,00.0,0627.8,34.4
2016-12-29T00:14:00Z,0000388,01000608,0000.59,0000.35,0000.56,0000.28,0000.40,-000.28,0000.18,-000.16,-000.12,24.8,00.0,0627.7,34.4
2016-12-29T00:15:00Z,0000388,01000608,0000.27,0000.83,0000.41,-000.86,0000.12,-000.19,-000.11,0000.15,0000.29,24.8,00.0,0627.7,34.4
2016-12-29T00:16:00Z,0000388,01000608,0000.82,0000.76,0000.24,0000.24,0000.00,0000.18,-000.04,-000.09,-000.13,24.9,00.0,0627.8,34.4
2016-12-29T00:17:00Z,0000388,01000608,0000.29,0000.45,0000.52,-000.24,-000.33,-000.30,0000.16,0000.12,0000.15,24.9,00.0,0627.8,34.4
2016-12-29T00:18:00Z,0000388,01000608,0000.73,0001.20,0000.35,0000.48,0000.18,-000.17,0000.06,-000.03,-000.02,25.0,00.0,0627.9,34.4
2016-12-29T00:19:00Z,0000388,01000608,0000.36,-000.06,0000.78,0000.49,-000.33,0000.20,0000.10,0000.17,0000.06,25.0,00.0,0627.9,34.5
2016-12-29T00:20:00Z,0000388,01000608,0000.87,0000.99,0000.20,0000.23,-000.46,-000.31,-000.24,-000.30,-000.37,25.1,00.0,0627.9,34.5
2016-12-29T00:21:00Z,0000388,01000608,0000.65,0001.13,0000.42,0000.30,-000.56,0000.13,0000.11,0000.22,0000.14,25.1,00.0,0627.9,34.5
2016-12-29T00:22:00Z,0000388,01000608,0000.15,0000.35,0000.19,-000.81,0000.13,-000.20,0000.08,-000.24,0000.02,25.1,00.0,0627.9,34.5
2016-12-29T00:23:00Z,0000388,01000608,0000.54,-000.11,0001.10,-000.17,-000.36,0000.39,0000.01,0000.16,0000.18,25.1,00.0,0628.0,34.5
2016-12-29T00:24:00Z,0000388,01000608,0000.30,0000.94,0000.72,-000.15,0000.05,-000.08,-000.04,0000.07,-000.31,25.0,00.0,0628.0,34.5
2016-12-29T00:25:00Z,0000388,01000608,0000.61,0000.50,0000.63,-000.30,0000.50,-000.18,-000.03,-000.19,0000.36,25.0,00.0,0628.1,34.5
2016-12-29T00:26:00Z,0000388,01000608,0000.85,0000.30,0000.35,0000.24,-000.55,0000.11,0000.11,0000.29,-000.17,24.9,00.0,0628.0,34.4
2016-12-29T00:27:00Z,0000388,01000608,0000.04,0000.20,0000.68,-000.27,0000.04,-000.12,0000.00,-000.20,-000.09,24.9,00.0,0628.1,34.4
2016-12-29T00:28:00Z,0000388,01000608,0001.33,0000.24,0000.98,-000.09,-000.30,-000.21,-000.07,0000.18,0000.23,24.9,00.0,0628.1,34.4
2016-12-29T00:29:00Z,0000388,01000608,0000.41,0001.04,0000.09,0000.14,-000.35,0000.47,-000.04,-000.04,-000.09,24.9,00.0,0628.1,34.4
2016-12-29T00:30:00Z,0000388,01000608,0000.71,0000.62,0000.30,0000.02,-000.20,-000.40,0000.00,-000.11,0000.11,25.0,00.0,0628.0,34.4
2016-12-29T00:31:00Z,0000388,01000608,0002.08,0000.08,-000.18,0000.22,-000.10,-000.27,0000.02,0000.02,-000.16,25.0,00.0,0628.1,34.5
2016-12-29T00:32:00Z,0000388,01000608,0000.41,0000.49,0000.27,-000.50,-000.06,0000.07,0000.02,0000.01,0000.36,25.0,00.0,0628.1,34.5
2016-12-29T00:33:00Z,0000388,01000608,0000.67,0000.64,0000.35,-000.59,-000.09,0000.02,-000.09,0000.11,-000.24,25.1,00.0,0628.1,34.5
2016-12-29T00:34:00Z,0000388,01000608,0000.69,0000.47,0000.65,-000.19,0000.27,-000.47,0000.01,-000.12,-000.21,25.1,00.0,0628.1,34.5
2016-12-29T00:35:00Z,0000388,01000608,0000.94,0000.69,0000.60,-000.16,0000.04,-000.27,0000.05,0000.02,0000.04,25.1,00.0,0628.1,34.5
2016-12-29T00:36:00Z,0000388,01000608,0000.91,0000.49,0000.67,0000.79,-000.49,-000.01,-000.04,0000.03,0000.25,25.1,00.0,0628.2,34.5
2016-12-29T00:37:00Z,0000388,01000608,0001.29,0000.38,0000.71,0000.38,-000.43,0000.17,0000.20,0000.16,-000.27,25.1,00.0,0628.2,34.5
2016-12-29T00:38:00Z,0000388,01000608,0000.21,0000.30,0000.24,0000.36,0000.29,-000.02,-000.07,-000.10,-000.08,25.0,00.0,0628.3,34.5
2016-12-29T00:39:00Z,0000388,01000608,0001.15,0000.50,0000.43,0000.07,-000.10,-000.27,-000.08,0000.11,0000.47,25.0,00.0,0628.3,34.5
2016-12-29T00:40:00Z,0000388,01000608,0000.66,0000.64,0000.34,0000.75,0000.10,0000.08,0000.09,-000.15,-000.42,25.0,00.0,0628.3,34.4
2016-12-29T00:41:00Z,0000388,01000608,0000.32,0000.18,0000.07,0000.44,0000.11,-000.20,-000.24,-000.02,-000.02,25.0,00.0,0628.3,34.4
2016-12-29T00:42:00Z,0000388,01000608,0000.72,0000.98,0000.48,-000.50,0000.11,-000.21,0000.22,-000.01,-000.00,24.9,00.0,0628.4,34.5
2016-12-29T00:43:00Z,0000388,01000608,0000.03,0000.95,0000.03,0000.06,-000.30,-000.44,0000.03,0000.22,0000.22,24.9,00.0,0628.4,34.4
2016-12-29T00:44:00Z,0000388,01000608,0000.62,0000.46,0000.47,-000.20,0000.11,0000.10,-000.05,-000.06,-000.24,24.9,00.0,0628.4,34.4
2016-12-29T00:45:00Z,0000388,01000608,0001.14,0000.57,0000.63,-000.09,-000.13,0000.04,0000.22,0000.03,0000.39,25.0,00.0,0628.4,34.4
2016-12-29T00:46:00Z,0000388,01000608,0000.96,0000.94,0000.46,-000.30,-000.06,0000.04,-000.13,0000.03,0000.06,25.0,00.0,0628.4,34.4
2016-12-29T00:47:00Z,0000388,01000608,0001.72,0000.78,0000.78,0000.11,-000.05,0000.49,-000.10,-000.14,-000.17,25.0,00.0,0628.4,34.4
2016-12-29T00:48:00Z,0000388,01000608,0000.14,0000.40,0000.51,-000.55,0000.02,-000.13,-000.09,0000.08,-000.03,25.0,00.0,0628.4,34.4
2016-12-29T00:49:00Z,0000388,01000608,0000.70,-000.14,0000.25,0000.15,-000.25,-000.09,0000.22,-000.01,-000.04,25.0,00.0,0628.4,34.4
2016-12-29T00:50:00Z,0000388,01000608,0000.84,0000.27,0000.81,-000.55,0000.25,0000.37,0000.05,0000.00,0000.03,25.0,00.0,0628.4,34.4
2016-12-29T00:51:00Z,0000388,01000608,0000.63,0000.84,0000.41,-000.06,-000.12,0000.23,-000.04,0000.02,0000.19,24.9,00.0,0628.4,34.4
2016-12-29T00:52:00Z,0000388,01000608,0000.36,0000.27,0000.20,0000.07,0000.09,0000.01,0000.06,0000.08,-000.14,24.9,00.0,0628.4,34.4
2016-12-29T00:53:00Z,0000388,01000608,0000.88,0000.75,0000.81,0000.49,-000.22,-000.32,-000.02,0000.10,0000.09,24.8,00.0,0628.4,34.4
2016-12-29T00:54:00Z,0000388,01000608,0001.70,0000.97,0000.48,-000.10,0000.07,0000.24,0000.09,-000.13,-000.29,24.8,00.0,0628.4,34.4
2016-12-29T00:55:00Z,0000388,01000608,0001.32,0001.01,0000.52,0000.55,-000.15,0000.15,0000.09,0000.06,0000.23,24.8,00.0,0628.4,34.4
2016-12-29T00:56:00Z,0000388,01000608,0001.63,0000.56,0000.39,-000.51,-000.05,0000.05,-000.15,-000.07,0000.15,24.8,00.0,0628.4,34.4
2016-12-29T00:57:00Z,0000388,41000608,,,,,,,,,,24.8,00.0,0628.3,34.4
2016-12-29T00:58:00Z,0000388,61000608,,,,,,,,,,24.6,00.0,0627.4,34.4
2016-12-29T00:59:00Z,0000388,21000608,,,,,,,,,,24.6,00.0,0627.3,34.4
2016-12-29T01:00:00Z,0000388,21000608,,,,,,,,,,24.6,00.0,0627.3,34.4
2016-12-29T01:01:00Z,0000388,21000608,,,,,,,,,,24.6,00.0,0627.3,34.4
2016-12-29T01:02:00Z,0000388,21000608,,,,,,,,,,24.7,00.0,0627.3,34.4
2016-12-29T01:03:00Z,0000388,61000608,,,,,,,,,,24.7,00.0,0627.3,34.4
2016-12-29T01:04:00Z,0000388,41000608,0001.22,-000.48,0000.86,-000.51,0000.18,0000.56,0000.08,0000.16,0000.14,24.9,00.0,0628.3,34.4
2016-12-29T01:05:00Z,0000388,01000608,0000.48,0000.43,0000.43,-000.37,0000.68,0000.10,0000.14,-000.06,0000.04,24.9,00.0,0628.4,34.4
2016-12-29T01:06:00Z,0000388,01000608,0000.62,0000.14,0000.59,-000.47,0000.14,0000.30,-000.15,-000.05,-000.09,24.8,00.0,0628.4,34.4
2016-12-29T01:07:00Z,0000388,01000608,0000.48,-000.22,0000.78,-000.27,-000.11,0000.15,0000.04,0000.15,-000.09,24.8,00.0,0628.4,34.4
2016-12-29T01:08:00Z,0000388,01000608,0000.94,0000.03,0000.26,-000.65,0000.11,0000.33,-000.01,-000.06,0000.22,24.8,00.0,0628.4,34.4
2016-12-29T01:09:00Z,0000388,01000608,0000.42,-000.26,0000.28,-000.66,-000.14,0000.25,-000.03,0000.07,-000.04,24.8,00.0,0628.4,34.4
2016-12-29T01:10:00Z,0000388,01000608,0000.80,0000.51,0000.21,-000.49,0000.03,-000.05,-000.06,-000.09,-000.02,24.8,00.0,0628.4,34.4
2016-12-29T01:11:00Z,0000388,01000608,0000.71,0000.15,0001.02,-000.14,0000.17,-000.00,0000.32,0000.05,0000.00,24.7,00.0,0628.4,34.4
2016-12-29T01:12:00Z,0000388,01000608,0001.63,-000.35,0000.75,0000.52,0000.25,-000.05,-000.24,0000.05,0000.10,24.7,00.0,0628.4,34.4
2016-12-29T01:13:00Z,0000388,01000608,0000.59,0000.52,0000.46,-000.74,-000.36,0000.11,0000.10,-000.02,-000.00,24.7,00.0,0628.4,34.4
2016-12-29T01:14:00Z,0000388,01000608,0000.47,0000.70,0000.43,-000.39,0000.35,0000.02,-000.17,0000.09,-000.12,24.7,00.0,0628.3,34.4
2016-12-29T01:15:00Z,0000388,01000608,0000.86,0000.38,0000.29,-000.88,0000.24,0000.33,0000.03,-000.11,0000.18,24.8,00.0,0628.3,34.4
2016-12-29T01:16:00Z,0000388,01000608,0000.75,-000.35,0000.57,-000.31,-000.08,0000.45,0000.32,0000.42,-000.01,24.8,00.0,0628.3,34.4
2016-12-29T01:17:00Z,0000388,01000608,0000.76,0000.40,0000.64,-000.71,-000.43,0000.01,-000.03,-000.19,-000.10,24.9,00.0,0628.2,34.4
2016-12-29T01:18:00Z,0000388,01000608,0000.73,0000.16,0000.67,-000.56,0000.20,0000.27,-000.16,-000.14,-000.00,24.9,00.0,0628.2,34.5
2016-12-29T01:19:00Z,0000388,01000608,-000.10,0000.35,0000.41,-000.46,-000.50,0000.22,0000.11,0000.16,0000.12,24.9,00.0,0628.2,34.5
2016-12-29T01:20:00Z,0000388,01000608,0001.05,0000.86,0000.18,-000.04,0000.05,0000.21,0000.09,-000.02,-000.23,24.9,00.0,0628.3,34.5
2016-12-29T01:21:00Z,0000388,01000608,0002.01,0000.68,-000.05,-000.02,0000.03,0000.43,-000.21,-000.14,-000.14,24.9,00.0,0628.3,34.5
2016-12-29T01:22:00Z,0000388,01000608,0001.15,0000.48,0000.03,-000.17,0000.02,0000.05,-000.03,0000.11,0000.48,24.9,00.0,0628.3,34.5
2016-12-29T01:23:00Z,0000388,01000608,0000.82,0000.38,0000.29,0000.31,-000.19,0000.42,-000.02,0000.01,0000.05,24.9,00.0,0628.3,34.4
2016-12-29T01:24:00Z,0000388,01000608,0000.43,0000.03,0000.47,-000.72,0000.45,0000.26,0000.32,-000.03,-000.31,24.9,00.0,0628.3,34.4
2016-12-29T01:25:00Z,0000388,01000608,0001.27,0000.26,0000.69,-000.59,0000.33,0000.58,0000.06,-000.10,-000.20,24.8,00.0,0628.2,34.4
2016-12-29T01:26:00Z,0000388,01000608,0001.40,0000.96,0000.39,-000.06,0000.56,0000.45,-000.10,0000.08,0000.21,24.8,00.0,0628.3,34.4
2016-12-29T01:27:00Z,0000388,01000608,0000.66,0000.47,0000.53,-001.13,0000.11,0000.23,0000.05,-000.09,0000.14,24.8,00.0,0628.3,34.4
2016-12-29T01:28:00Z,0000388,01000608,0000.72,0000.16,0000.55,-000.15,0000.34,0000.10,-000.29,0000.23,0000.06,24.8,00.0,0628.3,34.4
2016-12-29T01:29:00Z,0000388,01000608,-000.58,0000.96,0000.24,-000.33,0000.65,0000.36,0000.05,-000.01,0000.01,24.8,00.0,0628.2,34.4
2016-12-29T01:30:00Z,0000388,01000608,0000.75,-000.51,0000.59,-000.26,-000.18,0000.07,0000.05,0000.01,-000.02,24.8,00.0,0628.2,34.4
2016-12-29T01:31:00Z,0000388,01000608,0000.68,0000.25,0000.33,-000.20,0000.19,0000.03,0000.03,-000.02,-000.23,24.9,00.0,0628.2,34.4
2016-12-29T01:32:00Z,0000388,01000608,0001.25,-000.07,0000.48,0000.05,0000.09,0000.14,0000.15,0000.11,0000.23,24.9,00.0,0628.2,34.5
2016-12-29T01:33:00Z,0000388,01000608,0000.39,0000.03,0000.36,0000.24,0000.05,0000.24,-000.24,-000.21,-000.04,25.0,00.0,0628.2,34.5
2016-12-29T01:34:00Z,0000388,01000608,0001.28,0000.45,0000.28,-000.90,0000.27,0000.35,0000.07,0000.16,0000.22,25.0,00.0,0628.2,34.5
2016-12-29T01:35:00Z,0000388,01000608,-000.11,0000.45,0000.93,-000.86,0000.46,0000.29,-000.06,0000.05,-000.20,25.0,00.0,0628.3,34.5
2016-12-29T01:36:00Z,0000388,01000608,0001.14,0000.11,0000.45,0000.02,0000.44,-000.23,0000.11,-000.02,-000.14,25.0,00.0,0628.3,34.5
2016-12-29T01:37:00Z,0000388,01000608,-000.23,-000.58,0001.27,0000.01,0000.09,-000.10,0000.09,-000.05,0000.10,25.0,00.0,0628.3,34.5
2016-12-29T01:38:00Z,0000388,01000608,-000.01,0000.01,0000.64,0000.13,0000.02,0000.23,0000.03,0000.15,0000.20,25.0,00.0,0628.4,34.4
2016-12-29T01:39:00Z,0000388,01000608,0000.78,0000.53,0000.68,-000.09,0000.11,-000.11,0000.08,-000.09,0000.01,24.9,00.0,0628.4,34.4
2016-12-29T01:40:00Z,0000388,01000608,0000.52,-000.13,0000.95,-000.22,0000.30,-000.01,0000.15,0000.09,-000.15,24.9,00.0,0628.4,34.4
2016-12-29T01:41:00Z,0000388,01000608,0000.78,0000.34,0000.96,-001.27,-000.12,0000.19,-000.03,0000.01,0000.05,24.9,00.0,0628.4,34.4
2016-12-29T01:42:00Z,0000388,01000608,0000.47,0000.75,0000.48,-000.55,0000.28,0000.27,0000.07,-000.11,0000.07,24.8,00.0,0628.4,34.4
2016-12-29T01:43:00Z,0000388,01000608,0000.79,0000.39,-000.04,-000.68,-000.21,0000.14,-000.29,0000.27,0000.16,24.8,00.0,0628.4,34.4
2016-12-29T01:44:00Z,0000388,01000608,0000.75,0000.31,0000.21,-000.33,-000.17,0000.01,0000.14,-000.11,0000.06,24.8,00.0,0628.4,34.4
2016-12-29T01:45:00Z,0000388,01000608,0000.63,-000.16,0000.45,-000.61,-000.09,-000.11,0000.03,0000.18,-000.00,24.9,00.0,0628.4,34.4
2016-12-29T01:46:00Z,0000388,01000608,0000.54,0000.42,0000.06,-000.20,0000.39,0000.11,-000.10,-000.09,-000.12,24.9,00.0,0628.4,34.5
2016-12-29T01:47:00Z,0000388,01000608,0000.79,0000.85,0000.26,-000.25,0000.32,0000.41,0000.09,0000.19,0000.30,25.0,00.0,0628.4,34.5
2016-12-29T01:48:00Z,0000388,01000608,0000.54,-000.14,0000.26,-000.11,0000.40,0000.30,0000.17,-000.08,-000.36,25.1,00.0,0628.4,34.5
2016-12-29T01:49:00Z,0000388,01000608,0000.21,0000.45,0000.81,-000.84,0000.29,0000.25,0000.03,-000.01,0000.26,25.1,00.0,0628.4,34.5
2016-12-29T01:50:00Z,0000388,01000608,0000.79,0000.24,0000.59,-001.04,-000.15,0000.06,-000.03,-000.06,-000.06,25.1,00.0,0628.4,34.5
2016-12-29T01:51:00Z,0000388,01000608,0001.38,0001.12,0000.18,0000.21,0000.21,0000.06,-000.19,0000.03,0000.12,25.1,00.0,0628.4,34.5
2016-12-29T01:52:00Z,0000388,01000608,0000.73,0000.42,0000.48,-000.09,0000.43,0000.03,-000.03,0000.09,-000.07,25.1,00.0,0628.4,34.5
2016-12-29T01:53:00Z,0000388,01000608,0001.93,0000.37,0000.13,-000.27,-000.23,0000.07,0000.17,-000.01,-000.46,25.1,00.0,0628.4,34.5
2016-12-29T01:54:00Z,0000388,01000608,0000.94,0000.63,0000.52,-000.08,0000.52,0000.29,-000.07,-000.01,0000.27,25.1,00.0,0628.4,34.5
2016-12-29T01:55:00Z,0000388,01000608,0001.04,-000.01,0000.47,-000.36,-000.25,0000.17,0000.22,-000.07,0000.30,25.0,00.0,0628.4,34.5
2016-12-29T01:56:00Z,0000388,01000608,0000.64,-000.27,0000.16,-000.40,-000.10,-000.01,-000.06,-000.04,-000.28,24.9,00.0,0628.4,34.4
2016-12-29T01:57:00Z,0000388,41000608,,,,,,,,,,25.0,00.0,0628.4,34.4
2016-12-29T01:58:00Z,0000388,61000608,,,,,,,,,,24.8,00.0,0627.4,34.4
2016-12-29T01:59:00Z,0000388,21000608,,,,,,,,,,24.8,00.0,0627.4,34.4
2016-12-29T02:00:00Z,0000388,21000608,,,,,,,,,,24.8,00.0,0627.3,34.4
2016-12-29T02:01:00Z,0000388,21000608,,,,,,,,,,24.9,00.0,0627.3,34.4
2016-12-29T02:02:00Z,0000388,21000608,,,,,,,,,,24.9,00.0,0627.3,34.5
2016-12-29T02:03:00Z,0000388,61000608,,,,,,,,,,24.9,00.0,0627.3,34.5
2016-12-29T02:04:00Z,0000388,41000608,0001.29,0000.61,0000.03,0000.70,0000.18,0000.17,-000.20,-000.08,-000.21,25.1,00.0,0628.2,34.5
2016-12-29T02:05:00Z,0000388,01000608,0000.80,0000.31,0000.28,-000.18,-000.09,0000.09,0000.01,0000.01,-000.05,25.2,00.0,0628.3,34.5
2016-12-29T02:06:00Z,0000388,01000608,0000.77,0000.30,0000.30,-000.09,-000.02,0000.32,0000.13,0000.07,0000.20,25.1,00.0,0628.3,34.5
2016-12-29T02:07:00Z,0000388,01000608,-000.42,0000.68,-000.23,0000.15,-000.03,0000.24,-000.06,-000.07,0000.06,25.1,00.0,0628.3,34.5
2016-12-29T02:08:00Z,0000388,01000608,0001.46,0000.52,0000.40,-000.04,0000.06,0000.10,-000.15,0000.01,0000.26,25.1,00.0,0628.3,34.5
2016-12-29T02:09:00Z,0000388,01000608,0000.77,0000.29,0000.69,-000.27,-000.02,0000.34,0000.29,0000.17,-000.20,25.0,00.0,0628.3,34.5
2016-12-29T02:10:00Z,0000388,01000608,0001.14,0000.30,0000.19,0000.74,-000.19,0000.20,-000.20,-000.04,-000.18,25.0,00.0,0628.3,34.5
2016-12-29T02:11:00Z,0000388,01000608,0000.22,0000.59,0000.58,0000.10,-000.22,-000.06,0000.07,0000.06,0000.20,25.0,00.0,0628.3,34.5
2016-12-29T02:12:00Z,0000388,01000608,0000.56,0000.15,0000.39,0000.61,0000.32,0000.67,0000.12,0000.02,-000.14,24.9,00.0,0628.3,34.5
2016-12-29T02:13:00Z,0000388,01000608,0000.17,0000.11,0000.22,0000.65,-000.03,0000.10,0000.01,-000.03,0000.27,24.9,00.0,0628.3,34.5
2016-12-29T02:14:00Z,0000388,01000608,0000.51,0000.51,0000.40,0000.61,-000.11,-000.05,-000.01,-000.10,0000.04,25.0,00.0,0628.3,34.4
2016-12-29T02:15:00Z,0000388,01000608,0001.28,0000.17,0000.23,0000.01,-000.47,-000.29,0000.19,0000.08,-000.07,25.0,00.0,0628.3,34.5
2016-12-29T02:16:00Z,0000388,01000608,0000.81,0000.45,0000.41,0000.28,0000.06,0000.17,-000.21,0000.13,-000.03,25.1,00.0,0628.3,34.5
2016-12-29T02:17:00Z,0000388,01000608,0001.16,0001.08,0000.27,-000.05,-000.62,0000.30,0000.25,-000.02,0000.09,25.1,00.0,0628.3,34.5
2016-12-29T02:18:00Z,0000388,01000608,0000.30,0000.26,0000.06,0000.15,-000.46,0000.10,-000.21,-000.03,-000.04,25.1,00.0,0628.3,34.5
2016-12-29T02:19:00Z,0000388,01000608,0000.36,-000.14,0000.61,0000.43,-000.52,0000.07,-000.03,0000.05,0000.13,25.2,00.0,0628.3,34.5
2016-12-29T02:20:00Z,0000388,01000608,0000.35,-000.08,0000.32,0000.10,0000.66,0000.15,-000.05,-000.09,-000.38,25.2,00.0,0628.3,34.5
2016-12-29T02:21:00Z,0000388,01000608,0000.63,0000.61,-000.07,0000.13,-000.06,-000.09,0000.04,-000.04,0000.17,25.2,00.0,0628.3,34.6
2016-12-29T02:22:00Z,0000388,01000608,0001.26,0000.63,0000.61,0000.36,0000.30,-000.24,-000.18,0000.12,-000.25,25.2,00.0,0628.3,34.6
2016-12-29T02:23:00Z,0000388,01000608,0001.18,0000.36,-000.05,0000.71,-000.11,-000.09,0000.12,-000.02,0000.18,25.1,00.0,0628.3,34.6
2016-12-29T02:24:00Z,0000388,01000608,0000.53,0000.11,0000.13,-000.24,-000.03,0000.44,0000.05,0000.01,0000.15,25.1,00.0,0628.4,34.6
2016-12-29T02:25:00Z,0000388,01000608,0000.55,0000.00,0000.77,0000.32,0000.28,-000.11,-000.09,-000.10,-000.30,25.1,00.0,0628.4,34.6
2016-12-29T02:26:00Z,0000388,01000608,0000.30,0000.49,0000.20,-000.01,-000.31,0000.60,0000.02,0000.07,0000.55,25.0,00.0,0628.4,34.6
2016-12-29T02:27:00Z,0000388,01000608,0000.27,0000.66,0000.79,0000.38,0000.12,0000.45,0000.38,-000.05,-000.19,25.0,00.0,0628.4,34.6
2016-12-29T02:28:00Z,0000388,01000608,0000.71,0000.27,-000.04,0000.19,0000.02,0000.08,-000.10,0000.01,-000.16,25.0,00.0,0628.4,34.6
2016-12-29T02:29:00Z,0000388,01000608,0000.38,0000.31,0000.09,-000.29,0000.08,0000.09,0000.12,0000.16,0000.13,25.0,00.0,0628.4,34.6
2016-12-29T02:30:00Z,0000388,01000608,0001.09,0001.50,0000.40,0000.33,-000.21,-000.09,-000.02,-000.02,0000.20,25.1,00.0,0628.4,34.6
2016-12-29T02:31:00Z,0000388,01000608,0000.28,0000.13,-000.03,-000.11,0000.26,0000.07,0000.01,-000.05,-000.19,25.1,00.0,0628.4,34.6
2016-12-29T02:32:00Z,0000388,01000608,0000.79,0000.91,0000.12,0000.56,-000.11,0000.32,-000.14,0000.09,0000.14,25.1,00.0,0628.3,34.6
2016-12-29T02:33:00Z,0000388,01000608,0001.53,0000.47,0000.31,0000.41,-000.56,0000.10,0000.06,-000.01,-000.08,25.2,00.0,0628.4,34.6
2016-12-29T02:34:00Z,0000388,01000608,0000.55,0000.55,0000.11,0000.50,-000.08,0000.39,-000.09,0000.09,0000.01,25.2,00.0,0628.4,34.6
2016-12-29T02:35:00Z,0000388,01000608,0000.49,0000.15,0000.08,0000.90,0000.10,0000.28,0000.03,-000.16,-000.12,25.2,00.0,0628.4,34.6
2016-12-29T02:36:00Z,0000388,01000608,-000.84,0000.66,0000.57,-000.16,0000.15,-000.03,-000.02,0000.16,0000.21,25.2,00.0,0628.4,34.6
2016-12-29T02:37:00Z,0000388,01000608,0001.65,0001.04,0000.34,0000.28,0000.06,0000.24,0000.16,0000.03,-000.12,25.2,00.0,0628.4,34.6
2016-12-29T02:38:00Z,0000388,01000608,-000.30,0000.61,0000.92,0000.61,-000.11,0000.45,0000.10,-000.01,0000.17,25.1,00.0,0628.4,34.6
2016-12-29T02:39:00Z,0000388,01000608,0001.14,0000.99,0000.66,0000.63,-000.58,0000.17,0000.07,0000.11,-000.13,25.1,00.0,0628.4,34.6
2016-12-29T02:40:00Z,0000388,01000608,0001.50,0000.76,0000.62,0000.14,0000.31,-000.14,-000.27,0000.02,0000.09,25.1,00.0,0628.4,34.6
2016-12-29T02:41:00Z,0000388,01000608,0001.16,0000.43,0000.59,-000.23,-000.43,0000.47,0000.24,0000.23,0000.02,25.1,00.0,0628.4,34.6
2016-12-29T02:42:00Z,0000388,01000608,0000.98,0000.25,0000.15,0000.43,0000.11,0000.08,0000.05,-000.23,-000.02,25.1,00.0,0628.4,34.6
2016-12-29T02:43:00Z,0000388,01000608,0001.20,0000.55,0000.31,0000.58,-000.26,-000.21,-000.11,0000.22,0000.17,25.1,00.0,0628.4,34.6
2016-12-29T02:44:00Z,0000388,01000608,-000.46,0000.26,0000.32,0000.64,-000.05,0000.04,0000.05,-000.02,-000.17,25.1,00.0,0628.4,34.6
2016-12-29T02:45:00Z,0000388,01000608,0000.67,0000.76,0000.25,0000.25,0000.17,0000.15,0000.30,-000.00,0000.29,25.1,00.0,0628.4,34.6
2016-12-29T02:46:00Z,0000388,01000608,0001.10,0000.82,0000.09,0000.25,-000.26,-000.17,-000.32,-000.17,-000.15,25.1,00.0,0628.5,34.5
2016-12-29T02:47:00Z,0000388,01000608,0000.32,0000.08,0000.11,-000.34,-000.40,0000.27,0000.25,0000.11,-000.07,25.1,00.0,0628.5,34.6
2016-12-29T02:48:00Z,0000388,01000608,0000.74,0000.54,0000.27,0000.67,0000.15,0000.18,-000.19,0000.04,-000.20,25.1,00.0,0628.5,34.6
2016-12-29T02:49:00Z,0000388,01000608,0000.11,0000.84,0000.62,-000.26,-000.46,0000.58,-000.11,-000.14,0000.09,25.1,00.0,0628.5,34.6
2016-12-29T02:50:00Z,0000388,01000608,0000.85,0000.70,0000.35,-000.41,0000.47,0000.38,0000.13,0000.11,0000.13,25.1,00.0,0628.5,34.6
2016-12-29T02:51:00Z,0000388,01000608,0000.17,0000.60,0000.26,0000.53,0000.54,0000.18,-000.08,-000.01,0000.04,25.1,00.0,0628.5,34.6
2016-12-29T02:52:00Z,0000388,01000608,0001.16,0000.78,0000.04,0000.33,0000.14,-000.19,0000.19,0000.12,-000.02,25.0,00.0,0628.5,34.6
2016-12-29T02:53:00Z,0000388,01000608,0000.10,0001.04,0000.54,-000.23,-000.19,0000.55,0000.15,0000.04,-000.06,25.0,00.0,0628.5,34.6
2016-12-29T02:54:00Z,0000388,01000608,0001.26,0000.40,0000.40,0000.60,-000.04,0000.32,-000.14,-000.10,0000.20,25.0,00.0,0628.6,34.6
2016-12-29T02:55:00Z,0000388,01000608,0000.74,0000.45,0000.44,0000.33,-000.24,0000.40,0000.11,-000.02,0000.05,24.9,00.0,0628.6,34.6
2016-12-29T02:56:00Z,0000388,01000608,0000.74,0000.56,0000.29,-000.45,-000.45,-000.38,-000.10,0000.05,-000.05,24.9,00.0,0628.6,34.6
2016-12-29T02:57:00Z,0000388,41000608,,,,,,,,,,25.0,00.0,0628.4,34.6
2016-12-29T02:58:00Z,0000388,61000608,,,,,,,,,,24.8,00.0,0627.5,34.5
2016-12-29T02:59:00Z,0000388,21000608,,,,,,,,,,24.8,00.0,0627.5,34.5
2016-12-29T03:00:00Z,0000388,21000608,,,,,,,,,,24.8,00.0,0627.5,34.5
2016-12-29T03:01:00Z,0000388,21000608,,,,,,,,,,24.9,00.0,0627.5,34.5
2016-12-29T03:02:00Z,0000388,21000608,,,,,,,,,,24.9,00.0,0627.5,34.5
2016-12-29T03:03:00Z,0000388,61000608,,,,,,,,,,24.9,00.0,0627.5,34.5
2016-12-29T03:04:00Z,0000388,41000608,0000.81,0000.69,0000.65,0000.48,0000.13,0000.46,0000.06,-000.07,0000.22,25.0,00.0,0628.5,34.6
2016-12-29T03:05:00Z,0000388,01000608,0000.54,0000.06,0000.77,-000.06,0000.06,0000.59,-000.12,0000.01,-000.27,25.1,00.0,0628.6,34.6
2016-12-29T03:06:00Z,0000388,01000608,-000.38,-000.03,0000.05,0000.33,0000.49,0000.07,0000.03,0000.44,0000.16,25.1,00.0,0628.6,34.5
2016-12-29T03:07:00Z,0000388,01000608,0001.15,0000.11,0001.35,-000.26,-000.15,0000.15,0000.16,-000.16,0000.01,25.0,00.0,0628.6,34.5
2016-12-29T03:08:00Z,0000388,01000608,-000.07,0000.24,0000.69,0000.00,0000.18,-000.04,-000.13,-000.25,0000.04,25.0,00.0,0628.6,34.5
2016-12-29T03:09:00Z,0000388,01000608,0000.87,0000.45,0000.71,-000.46,0000.60,0000.18,-000.15,0000.16,-000.07,25.0,00.0,0628.7,34.6
2016-12-29T03:10:00Z,0000388,01000608,0001.35,0000.54,-000.06,-000.09,0000.30,-000.10,0000.04,-000.13,-000.02,25.0,00.0,0628.7,34.6
2016-12-29T03:11:00Z,0000388,01000608,0001.64,0000.26,0000.34,0000.48,0000.10,0000.16,0000.13,0000.16,0000.08,24.9,00.0,0628.7,34.6